TimeEST,TemperatureF,Dew PointF,Humidity,Sea Level PressureIn,VisibilityMPH,Wind Direction,Wind SpeedMPH,Gust SpeedMPH,PrecipitationIn,Events,Conditions,WindDirDegrees,DateUTC
12:15 AM,44.6,33.8,66,29.85,10.0,East,8.1,-,N/A,,Overcast,90,2013-02-13 05:15:00
12:35 AM,44.6,33.8,66,29.84,10.0,ENE,6.9,17.3,N/A,,Overcast,70,2013-02-13 05:35:00
12:55 AM,44.6,33.8,66,29.84,10.0,East,10.4,19.6,N/A,,Overcast,90,2013-02-13 05:55:00
1:15 AM,44.6,33.8,66,29.85,10.0,East,8.1,-,N/A,,Overcast,100,2013-02-13 06:15:00
1:35 AM,44.6,35.6,71,29.83,10.0,East,12.7,16.1,N/A,,Light Drizzle,100,2013-02-13 06:35:00
1:55 AM,44.6,35.6,71,29.83,10.0,East,9.2,-,N/A,,Light Drizzle,100,2013-02-13 06:55:00
2:15 AM,44.6,35.6,71,29.83,10.0,East,6.9,16.1,N/A,,Overcast,90,2013-02-13 07:15:00
2:35 AM,42.8,35.6,76,29.82,10.0,East,10.4,-,N/A,Rain,Rain,80,2013-02-13 07:35:00
2:55 AM,42.8,35.6,76,29.80,7.0,East,11.5,19.6,N/A,,Overcast,100,2013-02-13 07:55:00
3:15 AM,42.8,37.4,81,29.80,7.0,East,5.8,-,N/A,,Overcast,90,2013-02-13 08:15:00
3:35 AM,42.8,37.4,81,29.80,4.0,East,8.1,-,N/A,Rain,Light Rain,90,2013-02-13 08:35:00
3:55 AM,42.8,37.4,81,29.79,4.0,East,8.1,-,N/A,,Light Drizzle,80,2013-02-13 08:55:00
4:15 AM,42.8,37.4,81,29.78,5.0,East,5.8,-,N/A,,Haze,80,2013-02-13 09:15:00
4:35 AM,42.8,37.4,81,29.77,7.0,East,8.1,-,N/A,,Overcast,80,2013-02-13 09:35:00
4:55 AM,42.8,37.4,81,29.76,7.0,East,9.2,-,N/A,,Drizzle,80,2013-02-13 09:55:00
5:15 AM,42.8,37.4,81,29.75,4.0,ENE,8.1,16.1,N/A,,Light Drizzle,60,2013-02-13 10:15:00
5:35 AM,42.8,37.4,81,29.75,4.0,East,8.1,18.4,N/A,,Haze,90,2013-02-13 10:35:00
5:55 AM,42.8,37.4,81,29.76,3.0,ESE,6.9,-,N/A,,Haze,110,2013-02-13 10:55:00
6:15 AM,42.8,37.4,81,29.76,2.5,East,9.2,-,N/A,,Light Drizzle,100,2013-02-13 11:15:00
6:35 AM,42.8,37.4,81,29.77,3.0,East,5.8,-,N/A,,Light Drizzle,90,2013-02-13 11:35:00
6:55 AM,42.8,37.4,81,29.77,2.5,East,9.2,-,N/A,Rain,Rain,90,2013-02-13 11:55:00
7:15 AM,42.8,37.4,81,29.76,2.5,ENE,6.9,-,N/A,,Drizzle,60,2013-02-13 12:15:00
7:35 AM,42.8,39.2,87,29.78,2.5,East,4.6,-,N/A,,Drizzle,100,2013-02-13 12:35:00
7:55 AM,42.8,39.2,87,29.76,2.0,East,5.8,-,N/A,,Drizzle,90,2013-02-13 12:55:00
8:15 AM,42.8,39.2,87,29.77,2.0,ENE,4.6,-,N/A,,Drizzle,70,2013-02-13 13:15:00
8:35 AM,42.8,39.2,87,29.77,1.5,East,4.6,-,N/A,,Drizzle,90,2013-02-13 13:35:00
8:55 AM,42.8,39.2,87,29.78,1.5,Calm,Calm,-,N/A,,Light Drizzle,0,2013-02-13 13:55:00
9:15 AM,42.8,39.2,87,29.79,1.0,Calm,Calm,-,N/A,Rain,Heavy Rain,0,2013-02-13 14:15:00
9:35 AM,42.8,39.2,87,29.78,1.2,Calm,Calm,-,N/A,Rain,Rain,0,2013-02-13 14:35:00
9:55 AM,42.8,39.2,87,29.78,1.8,Calm,Calm,-,N/A,Rain,Light Rain,0,2013-02-13 14:55:00
10:15 AM,44.6,39.2,81,29.80,1.8,SE,3.5,-,N/A,,Light Drizzle,140,2013-02-13 15:15:00
10:35 AM,44.6,41.0,87,29.80,2.5,Calm,Calm,-,N/A,,Light Drizzle,0,2013-02-13 15:35:00
10:55 AM,44.6,41.0,87,29.80,5.0,Calm,Calm,-,N/A,,Overcast,0,2013-02-13 15:55:00
11:15 AM,44.6,41.0,87,29.80,5.0,SW,3.5,-,N/A,Rain,Light Rain,220,2013-02-13 16:15:00
11:35 AM,46.4,42.8,87,29.78,3.0,Calm,Calm,-,N/A,,Overcast,0,2013-02-13 16:35:00
11:55 AM,46.4,42.8,87,29.79,10.0,WSW,5.8,-,N/A,,Overcast,240,2013-02-13 16:55:00
12:15 PM,48.2,44.6,87,29.79,10.0,West,5.8,-,N/A,,Overcast,260,2013-02-13 17:15:00
12:35 PM,48.2,42.8,82,29.77,10.0,West,8.1,-,N/A,,Overcast,270,2013-02-13 17:35:00
12:55 PM,48.2,41.0,76,29.78,10.0,West,8.1,-,N/A,,Overcast,270,2013-02-13 17:55:00
1:15 PM,48.2,41.0,76,29.79,10.0,West,9.2,-,N/A,,Overcast,280,2013-02-13 18:15:00
1:35 PM,50.0,39.2,66,29.78,10.0,WNW,9.2,-,N/A,,Overcast,290,2013-02-13 18:35:00
1:50 PM,-9999,-9999,N/A,-9999,-9999.0,SSW,9.2,-,N/A,,Unknown,200,2013-02-13 18:50:00
1:55 PM,48.2,37.4,66,29.78,10.0,West,10.4,24.2,N/A,,Overcast,280,2013-02-13 18:55:00
2:15 PM,46.4,35.6,66,29.78,10.0,WNW,8.1,18.4,N/A,,Overcast,290,2013-02-13 19:15:00
2:35 PM,44.6,37.4,76,29.79,7.0,West,5.8,16.1,N/A,,Overcast,280,2013-02-13 19:35:00
2:55 PM,44.6,37.4,76,29.79,10.0,WNW,8.1,-,N/A,,Light Drizzle,300,2013-02-13 19:55:00
3:15 PM,44.6,35.6,71,29.80,10.0,WNW,6.9,-,N/A,,Overcast,300,2013-02-13 20:15:00
3:35 PM,46.4,35.6,66,29.80,10.0,West,9.2,-,N/A,,Overcast,280,2013-02-13 20:35:00
3:55 PM,46.4,35.6,66,29.80,10.0,West,4.6,-,N/A,,Overcast,280,2013-02-13 20:55:00
4:15 PM,44.6,35.6,71,29.81,10.0,WNW,6.9,-,N/A,,Overcast,290,2013-02-13 21:15:00
4:35 PM,44.6,35.6,71,29.82,10.0,West,9.2,-,N/A,,Overcast,270,2013-02-13 21:35:00
4:55 PM,44.6,33.8,66,29.82,10.0,WNW,9.2,-,N/A,,Overcast,290,2013-02-13 21:55:00
5:15 PM,44.6,35.6,71,29.83,10.0,WNW,5.8,-,N/A,,Overcast,300,2013-02-13 22:15:00
5:35 PM,44.6,33.8,66,29.84,10.0,WNW,6.9,-,N/A,,Overcast,290,2013-02-13 22:35:00
5:55 PM,44.6,33.8,66,29.85,10.0,WNW,11.5,23.0,N/A,,Overcast,300,2013-02-13 22:55:00
6:15 PM,44.6,33.8,66,29.87,10.0,WNW,11.5,17.3,N/A,,Overcast,300,2013-02-13 23:15:00
6:35 PM,42.8,32.0,66,29.88,10.0,NW,8.1,-,N/A,,Overcast,310,2013-02-13 23:35:00
6:55 PM,42.8,32.0,66,29.89,10.0,WNW,6.9,18.4,N/A,,Mostly Cloudy,300,2013-02-13 23:55:00
7:15 PM,42.8,32.0,66,29.90,10.0,WNW,4.6,-,N/A,,Mostly Cloudy,300,2013-02-14 00:15:00
7:35 PM,41.0,32.0,70,29.91,10.0,WNW,4.6,-,N/A,,Mostly Cloudy,300,2013-02-14 00:35:00
7:55 PM,41.0,30.2,65,29.91,10.0,WNW,11.5,17.3,N/A,,Scattered Clouds,300,2013-02-14 00:55:00
8:15 PM,39.2,30.2,70,29.92,10.0,NW,11.5,16.1,N/A,,Scattered Clouds,310,2013-02-14 01:15:00
8:35 PM,39.2,30.2,70,29.92,10.0,NW,11.5,17.3,N/A,,Mostly Cloudy,310,2013-02-14 01:35:00
8:55 PM,39.2,28.4,65,29.92,10.0,WNW,6.9,-,N/A,,Scattered Clouds,300,2013-02-14 01:55:00
9:15 PM,37.4,28.4,70,29.93,10.0,NW,6.9,-,N/A,,Clear,310,2013-02-14 02:15:00
9:35 PM,37.4,28.4,70,29.93,10.0,NW,5.8,-,N/A,,Clear,310,2013-02-14 02:35:00
9:55 PM,37.4,28.4,70,29.93,10.0,WNW,5.8,-,N/A,,Clear,300,2013-02-14 02:55:00
10:15 PM,37.4,30.2,75,29.94,10.0,WNW,6.9,-,N/A,,Clear,300,2013-02-14 03:15:00
10:35 PM,35.6,30.2,81,29.95,10.0,NW,5.8,16.1,N/A,,Clear,310,2013-02-14 03:35:00
10:55 PM,35.6,30.2,81,29.95,10.0,NW,8.1,-,N/A,,Clear,310,2013-02-14 03:55:00
11:15 PM,35.6,30.2,81,29.95,10.0,NW,6.9,17.3,N/A,,Clear,310,2013-02-14 04:15:00
11:35 PM,37.4,30.2,75,29.95,10.0,NW,6.9,17.3,N/A,,Scattered Clouds,310,2013-02-14 04:35:00
11:55 PM,37.4,28.4,70,29.96,10.0,NW,6.9,-,N/A,,Scattered Clouds,320,2013-02-14 04:55:00